EN

Hourly Weather Troickoe

Today, 12 May, Wednesday

Time Temperature Precipitation Wind Pressure Humidity
00:00 +8°C° 0 mm 2 mps 753 mmHg 78%
01:00 +7°C° 0 mm 2 mps 753 mmHg 81%
02:00 +7°C° 0 mm 2 mps 753 mmHg 83%
03:00 +7°C° 0 mm 3 mps 753 mmHg 85%
04:00 +7°C° 0.1 mm 3 mps 752 mmHg 87%
05:00 +8°C° 0.1 mm 3 mps 752 mmHg 90%
06:00 +8°C° 0.1 mm 3 mps 752 mmHg 92%
07:00 +9°C° 1.8 mm 2 mps 751 mmHg 94%
08:00 +9°C° 1.8 mm 2 mps 751 mmHg 96%
09:00 +10°C° 1.8 mm 2 mps 750 mmHg 98%
10:00 +10°C° 1 mm 2 mps 750 mmHg 97%
11:00 +11°C° 1 mm 1 mps 750 mmHg 97%
12:00 +11°C° 1 mm 1 mps 750 mmHg 97%
13:00 +11°C° 0.3 mm 1 mps 750 mmHg 96%
14:00 +12°C° 0.3 mm 1 mps 750 mmHg 95%
15:00 +12°C° 0.3 mm 1 mps 750 mmHg 95%
16:00 +12°C° 0 mm 1 mps 750 mmHg 93%
17:00 +13°C° 0 mm 2 mps 750 mmHg 91%
18:00 +13°C° 0 mm 2 mps 750 mmHg 90%
19:00 +13°C° 0 mm 2 mps 750 mmHg 92%
20:00 +13°C° 0 mm 2 mps 750 mmHg 93%
21:00 +12°C° 0 mm 1 mps 750 mmHg 95%
22:00 +12°C° 0 mm 2 mps 750 mmHg 96%
23:00 +12°C° 0 mm 2 mps 750 mmHg 96%

Tomorrow, 13 May, Thursday

Time Temperature Precipitation Wind Pressure Humidity
00:00 +10°C° 0 mm 3 mps 750 mmHg 96%
01:00 +10°C° 0 mm 3 mps 750 mmHg 96%
02:00 +10°C° 0 mm 3 mps 749 mmHg 97%
03:00 +10°C° 0 mm 3 mps 749 mmHg 97%
04:00 +11°C° 0 mm 3 mps 749 mmHg 96%
05:00 +11°C° 0 mm 3 mps 749 mmHg 95%
06:00 +12°C° 0 mm 3 mps 748 mmHg 94%
07:00 +13°C° 0.4 mm 4 mps 748 mmHg 91%
08:00 +14°C° 0.4 mm 4 mps 748 mmHg 88%
09:00 +15°C° 0.4 mm 5 mps 747 mmHg 85%
10:00 +16°C° 0.1 mm 5 mps 747 mmHg 82%
11:00 +17°C° 0.1 mm 6 mps 747 mmHg 79%
12:00 +19°C° 0.1 mm 6 mps 747 mmHg 76%
13:00 +19°C° 0.3 mm 6 mps 747 mmHg 75%
14:00 +20°C° 0.3 mm 5 mps 747 mmHg 74%
15:00 +20°C° 0.3 mm 4 mps 747 mmHg 74%
16:00 +20°C° 0.4 mm 3 mps 747 mmHg 75%
17:00 +20°C° 0.4 mm 3 mps 747 mmHg 76%
18:00 +20°C° 0.4 mm 2 mps 747 mmHg 77%
19:00 +19°C° 0 mm 2 mps 747 mmHg 80%
20:00 +18°C° 0 mm 1 mps 747 mmHg 83%
21:00 +16°C° 0 mm 1 mps 748 mmHg 86%
22:00 +16°C° 0 mm 1 mps 748 mmHg 86%
23:00 +15°C° 0 mm 1 mps 748 mmHg 87%

Day after tomorrow, 14 May, Friday

Time Temperature Precipitation Wind Pressure Humidity
00:00 +15°C° 0 mm 2 mps 748 mmHg 88%
01:00 +15°C° 0 mm 2 mps 748 mmHg 88%
02:00 +15°C° 0 mm 2 mps 748 mmHg 89%
03:00 +14°C° 0 mm 3 mps 748 mmHg 89%
04:00 +14°C° 0 mm 3 mps 748 mmHg 90%
05:00 +14°C° 0 mm 3 mps 748 mmHg 90%
06:00 +16°C° 0 mm 2 mps 748 mmHg 90%
07:00 +17°C° 0 mm 3 mps 748 mmHg 85%
08:00 +19°C° 0 mm 3 mps 748 mmHg 80%
09:00 +21°C° 0 mm 4 mps 748 mmHg 75%
10:00 +22°C° 0 mm 4 mps 748 mmHg 69%
11:00 +23°C° 0 mm 4 mps 748 mmHg 64%
12:00 +26°C° 0 mm 5 mps 748 mmHg 58%
13:00 +26°C° 0 mm 5 mps 748 mmHg 58%
14:00 +27°C° 0 mm 5 mps 748 mmHg 57%
15:00 +27°C° 0 mm 5 mps 747 mmHg 56%
16:00 +26°C° 0 mm 5 mps 747 mmHg 60%
17:00 +26°C° 0 mm 4 mps 747 mmHg 64%
18:00 +25°C° 0 mm 4 mps 747 mmHg 68%
19:00 +22°C° 0 mm 4 mps 747 mmHg 73%
20:00 +21°C° 0 mm 4 mps 747 mmHg 78%
21:00 +19°C° 0 mm 4 mps 746 mmHg 82%
22:00 +19°C° 0 mm 4 mps 746 mmHg 82%
23:00 +18°C° 0 mm 4 mps 746 mmHg 81%

15 May, Saturday

Time Temperature Precipitation Wind Pressure Humidity
00:00 +18°C° 0 mm 4 mps 746 mmHg 81%
01:00 +17°C° 0 mm 4 mps 746 mmHg 77%
02:00 +17°C° 0 mm 4 mps 746 mmHg 73%
03:00 +15°C° 0 mm 4 mps 746 mmHg 69%
04:00 +15°C° 0 mm 4 mps 746 mmHg 68%
05:00 +15°C° 0 mm 5 mps 746 mmHg 67%
06:00 +15°C° 0 mm 5 mps 746 mmHg 66%
07:00 +17°C° 0 mm 6 mps 746 mmHg 63%
08:00 +19°C° 0 mm 6 mps 746 mmHg 59%
09:00 +21°C° 0 mm 6 mps 746 mmHg 56%
10:00 +22°C° 0 mm 7 mps 746 mmHg 55%
11:00 +24°C° 0 mm 7 mps 746 mmHg 53%
12:00 +26°C° 0 mm 7 mps 746 mmHg 51%
13:00 +26°C° 0 mm 7 mps 746 mmHg 51%
14:00 +27°C° 0 mm 6 mps 746 mmHg 52%
15:00 +27°C° 0 mm 6 mps 746 mmHg 52%
16:00 +26°C° 0 mm 6 mps 745 mmHg 55%
17:00 +26°C° 0 mm 5 mps 745 mmHg 58%
18:00 +25°C° 0 mm 5 mps 745 mmHg 60%
19:00 +22°C° 0 mm 4 mps 745 mmHg 65%
20:00 +20°C° 0 mm 4 mps 745 mmHg 69%
21:00 +19°C° 0 mm 3 mps 745 mmHg 74%
22:00 +18°C° 0 mm 3 mps 745 mmHg 76%
23:00 +18°C° 0 mm 3 mps 745 mmHg 77%

16 May, Sunday

Time Temperature Precipitation Wind Pressure Humidity
00:00 +17°C° 0 mm 3 mps 745 mmHg 79%
01:00 +17°C° 0.2 mm 2 mps 745 mmHg 81%
02:00 +17°C° 0.2 mm 2 mps 745 mmHg 83%
03:00 +16°C° 0.2 mm 2 mps 745 mmHg 85%
04:00 +18°C° 0.1 mm 1 mps 745 mmHg 84%
05:00 +18°C° 0.1 mm 1 mps 745 mmHg 83%
06:00 +19°C° 0.1 mm 1 mps 745 mmHg 83%
07:00 +21°C° 0.1 mm 1 mps 746 mmHg 78%
08:00 +22°C° 0.1 mm 1 mps 746 mmHg 72%
09:00 +24°C° 0.1 mm 1 mps 746 mmHg 67%
10:00 +25°C° 0 mm 2 mps 746 mmHg 62%
11:00 +26°C° 0 mm 2 mps 746 mmHg 57%
12:00 +27°C° 0 mm 3 mps 746 mmHg 52%
13:00 +27°C° 0.1 mm 3 mps 746 mmHg 50%
14:00 +27°C° 0.1 mm 4 mps 746 mmHg 48%
15:00 +28°C° 0.1 mm 4 mps 746 mmHg 46%
16:00 +27°C° 0 mm 3 mps 746 mmHg 53%
17:00 +26°C° 0 mm 2 mps 746 mmHg 59%
18:00 +25°C° 0 mm 2 mps 746 mmHg 66%
19:00 +23°C° 0 mm 1 mps 746 mmHg 67%
20:00 +22°C° 0 mm 1 mps 746 mmHg 68%
21:00 +21°C° 0 mm 1 mps 746 mmHg 69%
22:00 +20°C° 0 mm 1 mps 746 mmHg 71%
23:00 +20°C° 0 mm 1 mps 746 mmHg 73%

17 May, Monday

Time Temperature Precipitation Wind Pressure Humidity
00:00 +18°C° 0 mm 2 mps 746 mmHg 74%
01:00 +18°C° 0 mm 2 mps 746 mmHg 74%
02:00 +17°C° 0 mm 2 mps 746 mmHg 74%
03:00 +17°C° 0 mm 2 mps 746 mmHg 74%
04:00 +17°C° 0 mm 2 mps 746 mmHg 74%
05:00 +17°C° 0 mm 2 mps 746 mmHg 74%
06:00 +18°C° 0 mm 2 mps 746 mmHg 74%
07:00 +20°C° 0 mm 2 mps 747 mmHg 68%
08:00 +22°C° 0 mm 3 mps 747 mmHg 62%
09:00 +25°C° 0 mm 3 mps 747 mmHg 56%
10:00 +26°C° 0 mm 4 mps 747 mmHg 50%
11:00 +28°C° 0 mm 4 mps 747 mmHg 44%
12:00 +29°C° 0 mm 5 mps 747 mmHg 38%
13:00 +29°C° 0 mm 5 mps 747 mmHg 39%
14:00 +30°C° 0 mm 4 mps 747 mmHg 40%
15:00 +30°C° 0 mm 4 mps 747 mmHg 41%
16:00 +29°C° 0 mm 4 mps 746 mmHg 48%
17:00 +28°C° 0 mm 3 mps 746 mmHg 54%
18:00 +26°C° 0 mm 3 mps 746 mmHg 61%
19:00 +25°C° 0 mm 3 mps 746 mmHg 61%
20:00 +22°C° 0 mm 3 mps 746 mmHg 62%
21:00 +20°C° 0 mm 4 mps 746 mmHg 62%
22:00 +20°C° 0 mm 4 mps 746 mmHg 60%
23:00 +19°C° 0 mm 4 mps 746 mmHg 59%
Show more

We Need Your Consent

Meteoprog and our Service Providers may store and access personal data such as cookies, device identifiers or other similar technologies on your device and process such data to personalise content and ads, as well as provide social media features and to analyse the traffic.

  • Store and/or access information on your device

    Cookies, device identifiers or other information can be stored or accessed on your device for the purposes indicated above.

  • Personalised ads and content, ad and content measurement, audience insights, and products development

    Ads and content can be personalised based on a profile. More data can be added to better personalise ads and content. Ad and content performance can be measured. Insights about the audience who saw the ads and content can be derived. Such data can be used to develop or improve user’s experience, systems and software.

By clicking ‘I Agree’ you will allow the use of indicated cookies, device identifiers, web beacons or other similar technologies. Your settings can be changed in the browser on your device.

For certain purposes, legitimate interests may be relied on, rather than consent. You can read more about this in our Privacy and Cookie Policy.